Change the Weather History Date:

Tuesday, October 18, 2011

  Actual Average (K1V4) Record (K1V4)
Temperature  
Mean Temperature 46 °F 46 °F  
Max Temperature 51 °F 57 °F 82 °F (1947)
Min Temperature 42 °F 36 °F 18 °F (1978)
Degree Days  
Heating Degree Days 18 19  
Month to date heating degree days 278  
Since 1 July heating degree days 512  
Cooling Degree Days 0 0  
Month to date cooling degree days 0  
Year to date cooling degree days 432  
Moisture  
Dew Point 40 °F    
Average Humidity 74    
Maximum Humidity 93    
Minimum Humidity 58    
Precipitation  
Precipitation 0.00 in 0.12 in 1.14 in (1948)
Month to date precipitation 2.30  
Year to date precipitation 31.45  
Sea Level Pressure  
Sea Level Pressure 29.77 in    
Wind  
Wind Speed 2 mph (SW)    
Max Wind Speed 9 mph    
Max Gust Speed -    
Visibility 9 miles    
Events Rain    
T = Trace of Precipitation, MM = Missing Value Source: NWS Daily Summary

Daily Weather History Graph

Daily Weather History Graph

Search for Another Location

Airport or City:

Trip Planner

Search our weather history database for the weather conditions in past years. The results will help you decide how hot, cold, wet, or windy it might be!

Date:

Astronomy

Oct. 18, 2011 Rise Set
Actual Time 7:06 AM EDT 5:59 PM EDT
Civil Twilight 6:37 AM EDT 6:28 PM EDT
Nautical Twilight 6:03 AM EDT 7:02 PM EDT
Astronomical Twilight 5:29 AM EDT 7:35 PM EDT
Moon 10:28 PM EDT (10/18) 1:04 PM EDT (10/18)
Length of Visible Light 11h 51m
Length of Day
10h 52m
Waning Gibbous, 65% of the Moon is Illuminated
Oct 18
Waning Gibbous
Oct 19
Last Quarter
Oct 26
New
Nov 2
First Quarter
Nov 10
Full

Hourly Weather History & Observations

Time (EDT) Temp. Windchill Dew Point Humidity Pressure Visibility Wind Dir Wind Speed Gust Speed Precip Events Conditions
12:15 AM 44.6 °F - 41.0 °F 87% 29.67 in 10.0 mi Calm Calm - N/A   Overcast
12:35 AM 44.6 °F - 41.0 °F 87% 29.67 in 10.0 mi Calm Calm - N/A   Overcast
12:55 AM 44.6 °F 43.1 °F 41.0 °F 87% 29.67 in 10.0 mi SSW 3.5 mph - N/A Rain Light Rain
1:15 AM 44.6 °F - 41.0 °F 87% 29.67 in 10.0 mi Calm Calm - N/A   Light Drizzle
1:35 AM 44.6 °F - 39.2 °F 81% 29.67 in 10.0 mi Calm Calm - N/A   Overcast
2:15 AM 44.6 °F - 41.0 °F 87% 29.66 in 10.0 mi Calm Calm - N/A   Light Drizzle
2:35 AM 44.6 °F - 41.0 °F 87% 29.67 in 10.0 mi Calm Calm - N/A   Light Drizzle
2:55 AM 44.6 °F - 41.0 °F 87% 29.67 in 10.0 mi Calm Calm - N/A   Drizzle
3:15 AM 44.6 °F - 41.0 °F 87% 29.67 in 10.0 mi Calm Calm - N/A   Overcast
3:55 AM 44.6 °F - 41.0 °F 87% 29.68 in 7.0 mi Calm Calm - N/A Rain Rain
4:15 AM 44.6 °F - 41.0 °F 87% 29.69 in 7.0 mi Calm Calm - N/A Rain Rain
4:35 AM 44.6 °F - 41.0 °F 87% 29.69 in 7.0 mi Calm Calm - N/A Rain Rain
4:55 AM 44.6 °F - 41.0 °F 87% 29.70 in 5.0 mi Calm Calm - N/A Rain Heavy Rain
5:15 AM 42.8 °F - 41.0 °F 93% 29.70 in 7.0 mi Calm Calm - N/A   Drizzle
5:35 AM 44.6 °F - 41.0 °F 87% 29.71 in 4.0 mi Calm Calm - N/A Rain Light Rain
5:55 AM 44.6 °F - 41.0 °F 87% 29.71 in 5.0 mi Calm Calm - N/A   Drizzle
6:15 AM 44.6 °F - 41.0 °F 87% 29.72 in 1.5 mi Calm Calm - N/A Rain Light Rain
6:55 AM 42.8 °F - 41.0 °F 93% 29.72 in 0.8 mi Calm Calm - N/A   Overcast
7:15 AM 44.6 °F - 41.0 °F 87% 29.74 in 10.0 mi Calm Calm - N/A   Overcast
7:35 AM 44.6 °F 41.4 °F 41.0 °F 87% 29.74 in 10.0 mi South 5.8 mph - N/A   Overcast
7:55 AM 44.6 °F 41.4 °F 41.0 °F 87% 29.75 in 10.0 mi SSW 5.8 mph - N/A   Mostly Cloudy
8:15 AM 44.6 °F 42.2 °F 41.0 °F 87% 29.76 in 10.0 mi WSW 4.6 mph - N/A   Clear
8:35 AM 46.4 °F - 41.0 °F 81% 29.76 in 10.0 mi Calm Calm - N/A   Clear
8:55 AM 46.4 °F 44.3 °F 41.0 °F 81% 29.77 in 10.0 mi WSW 4.6 mph - N/A   Clear
9:15 AM 50.0 °F - 42.8 °F 76% 29.78 in 10.0 mi West 4.6 mph - N/A   Mostly Cloudy
9:35 AM 50.0 °F - 42.8 °F 76% 29.78 in 10.0 mi WSW 4.6 mph - N/A   Mostly Cloudy
10:15 AM 48.2 °F - 39.2 °F 71% 29.79 in 10.0 mi SW 5.8 mph - N/A   Scattered Clouds
10:35 AM 50.0 °F - 41.0 °F 71% 29.79 in 10.0 mi SW 6.9 mph - N/A   Scattered Clouds
10:55 AM 51.8 °F - 41.0 °F 67% 29.79 in 10.0 mi SW 6.9 mph - N/A   Mostly Cloudy
11:15 AM 51.8 °F - 37.4 °F 58% 29.79 in 10.0 mi WSW 9.2 mph - N/A   Overcast
11:35 AM 51.8 °F - 37.4 °F 58% 29.80 in 10.0 mi SW 9.2 mph - N/A   Overcast
12:15 PM 51.8 °F - 39.2 °F 62% 29.81 in 10.0 mi SSW 6.9 mph - N/A   Overcast
12:35 PM 50.0 °F - 39.2 °F 66% 29.80 in 10.0 mi SSW 5.8 mph - N/A   Overcast
12:55 PM 50.0 °F - 39.2 °F 66% 29.80 in 10.0 mi SW 9.2 mph - N/A   Overcast
1:35 PM 50.0 °F - 37.4 °F 62% 29.80 in 10.0 mi SW 5.8 mph - N/A   Overcast
1:55 PM 51.8 °F - 37.4 °F 58% 29.81 in 10.0 mi SW 8.1 mph - N/A   Overcast
2:15 PM 51.8 °F - 37.4 °F 58% 29.81 in 10.0 mi WSW 6.9 mph - N/A   Overcast
2:55 PM 51.8 °F - 37.4 °F 58% 29.82 in 10.0 mi Calm Calm - N/A   Overcast
3:15 PM 51.8 °F - 37.4 °F 58% 29.82 in 10.0 mi Calm Calm - N/A   Overcast
3:35 PM 51.8 °F - 37.4 °F 58% 29.83 in 10.0 mi Calm Calm - N/A   Overcast
4:15 PM 51.8 °F - 37.4 °F 58% 29.83 in 10.0 mi SSW 4.6 mph - N/A   Overcast
4:35 PM 51.8 °F - 39.2 °F 62% 29.83 in 10.0 mi SSW 4.6 mph - N/A   Overcast
4:55 PM 51.8 °F - 37.4 °F 58% 29.84 in 10.0 mi SSW 4.6 mph - N/A   Overcast
5:15 PM 51.8 °F - 37.4 °F 58% 29.85 in 10.0 mi South 4.6 mph - N/A   Overcast
5:35 PM 51.8 °F - 37.4 °F 58% 29.86 in 10.0 mi South 5.8 mph - N/A   Overcast
5:55 PM 51.8 °F - 37.4 °F 58% 29.86 in 10.0 mi SSW 5.8 mph - N/A   Overcast
6:15 PM 51.8 °F - 37.4 °F 58% 29.87 in 10.0 mi SSW 5.8 mph - N/A   Overcast
6:35 PM 51.8 °F - 37.4 °F 58% 29.88 in 10.0 mi SSW 5.8 mph - N/A   Overcast
7:15 PM 51.8 °F - 37.4 °F 58% 29.89 in 10.0 mi SW 6.9 mph - N/A   Overcast
7:35 PM 50.0 °F - 37.4 °F 62% 29.90 in 10.0 mi SW 5.8 mph - N/A   Overcast
8:15 PM 50.0 °F - 37.4 °F 62% 29.90 in 10.0 mi SSW 4.6 mph - N/A   Overcast
8:35 PM 50.0 °F - 37.4 °F 62% 29.91 in 10.0 mi SSW 3.5 mph - N/A   Overcast
9:15 PM 48.2 °F - 37.4 °F 66% 29.92 in 10.0 mi Calm Calm - N/A   Scattered Clouds
9:35 PM 48.2 °F - 37.4 °F 66% 29.93 in 10.0 mi Calm Calm - N/A   Clear
9:55 PM 50.0 °F - 37.4 °F 62% 29.94 in 10.0 mi South 3.5 mph - N/A   Clear
10:15 PM 50.0 °F - 37.4 °F 62% 29.94 in 10.0 mi Calm Calm - N/A   Clear
10:35 PM 48.2 °F - 37.4 °F 66% 29.95 in 10.0 mi Calm Calm - N/A   Clear
10:55 PM 48.2 °F - 37.4 °F 66% 29.95 in 10.0 mi Calm Calm - N/A   Scattered Clouds
11:15 PM 44.6 °F 43.1 °F 37.4 °F 76% 29.95 in 10.0 mi East 3.5 mph - N/A   Scattered Clouds
11:35 PM 42.8 °F - 39.2 °F 87% 29.95 in 10.0 mi Calm Calm - N/A   Clear
11:55 PM 44.6 °F - 37.4 °F 76% 29.96 in 10.0 mi Calm Calm - N/A   Clear